Theta_e
326 327 326 326 325 326 325 326 325 326 325 325 326 326 327 330 332 328 328 327 327 325 326 326 326 326 326 326 326 325 324 323 322 321 319 318 317 317 316 315 316 316
325 327 330 327 327 329 327 327 327 327 327 326 327 327 327 330 331 328 326 325 325 324 325 325 325 325 324 324 323 322 320 318 317 317 315 314 314 314 314 314 314 314
325 326 327 327 327 327 328 327 327 327 327 328 329 328 330 331 329 327 325 324 323 323 324 324 324 324 322 321 320 318 316 315 314 315 315 312 314 313 313 313 313 313
325 327 327 328 327 327 327 328 327 328 328 330 330 331 332 333 328 327 328 328 323 322 322 323 323 322 320 318 317 315 315 314 314 315 314 314 314 313 313 313 313 312
326 326 327 328 328 328 328 328 328 327 329 330 329 332 334 332 327 326 324 323 322 321 321 321 321 320 319 317 315 314 315 313 313 313 312 312 313 313 313 312 311 310
326 328 328 328 328 328 327 328 329 328 329 328 330 333 332 330 327 325 324 322 321 321 320 320 319 319 317 316 314 313 313 312 312 312 311 310 310 311 311 310 310 309
326 327 327 328 328 328 328 328 329 330 329 330 331 332 331 329 326 325 323 323 321 321 320 319 318 317 317 315 314 312 312 312 311 311 310 310 310 309 309 310 309 308
327 327 328 327 327 328 329 328 328 329 330 329 331 331 331 329 326 325 324 322 321 319 319 319 318 317 315 314 313 312 312 311 310 309 308 308 308 307 308 308 308 307
327 327 327 327 327 327 328 329 329 329 330 328 330 330 332 329 326 324 323 322 320 318 318 318 317 316 315 314 313 312 310 310 309 309 308 307 307 306 306 307 307 307
327 327 327 327 327 328 328 329 329 330 330 329 329 331 331 330 326 324 322 321 320 318 317 317 316 316 314 313 312 311 309 308 308 308 307 307 306 305 305 306 306 306
326 327 327 327 327 327 329 329 329 330 330 330 328 330 331 329 326 323 322 320 319 318 317 316 316 315 313 312 312 311 309 308 307 307 307 306 307 307 308 306 307 306
326 326 327 327 327 327 328 329 330 330 330 331 329 329 330 329 325 322 321 320 319 318 317 316 315 314 313 312 311 310 309 308 308 307 307 307 306 306 306 307 306 306
327 327 327 327 328 328 329 329 330 330 330 330 331 329 329 327 325 322 322 320 319 318 316 316 315 314 313 311 310 309 308 307 307 307 306 306 306 306 306 306 306 307
328 328 327 327 328 328 329 329 330 330 330 331 331 329 328 327 325 322 321 319 318 317 316 316 314 313 312 311 310 308 308 307 307 307 306 306 307 307 307 307 307 307
328 328 328 328 328 328 328 328 329 330 330 330 330 330 329 327 325 323 319 317 316 316 315 314 313 312 312 310 309 308 308 307 306 307 307 307 306 306 307 307 308 308
328 328 329 328 327 327 327 328 329 329 330 329 330 330 329 327 324 322 319 317 315 314 314 313 313 313 315 313 311 308 307 306 307 307 307 307 307 306 306 307 308 310
328 328 328 328 328 328 328 328 328 329 329 329 329 329 328 326 323 320 318 317 315 314 313 312 312 313 313 303 303 306 308 307 306 307 307 307 307 306 306 308 308 310
328 328 328 328 328 328 328 328 328 328 328 329 329 328 328 326 322 321 319 317 315 314 313 313 312 314 303 301 301 302 307 308 307 307 306 306 306 306 307 307 307 308
328 328 328 328 328 328 328 328 328 328 328 328 328 329 328 324 322 321 319 317 315 313 313 313 312 308 301 301 300 300 302 308 307 307 306 305 305 306 306 306 306 306
328 328 328 328 328 328 329 328 328 328 328 329 329 328 327 324 322 320 319 316 315 314 313 313 312 310 300 301 300 299 300 303 307 306 306 305 304 304 305 304 305 305
328 328 328 328 328 328 328 328 328 328 328 328 328 328 326 324 321 319 318 316 315 314 313 312 312 305 299 299 299 299 299 304 307 306 305 303 303 303 304 303 304 305
328 328 328 328 328 328 327 328 328 328 328 328 328 327 326 325 322 320 318 316 315 313 312 311 312 301 299 299 299 298 299 308 306 305 303 301 301 301 301 301 302 302
328 328 328 328 328 327 327 327 328 328 328 329 327 326 324 322 321 319 319 317 314 313 311 311 311 302 298 298 298 297 302 308 305 304 302 301 300 300 300 299 299 300
328 328 328 328 328 327 327 328 328 329 329 329 328 325 323 322 322 320 318 317 314 312 311 311 310 307 298 298 298 297 307 307 306 303 301 300 300 301 300 299 299 304
329 329 328 328 328 328 328 328 328 328 328 329 328 327 324 323 322 320 317 315 313 313 315 313 310 309 298 298 297 298 306 308 306 304 301 301 300 301 301 299 300 305
328 328 328 328 328 328 328 326 325 324 325 325 325 326 325 323 320 319 316 313 312 312 312 313 310 309 303 297 298 299 303 308 307 304 303 302 301 300 299 297 300 303
Wind_Speed
5 5 6 5 6 5 5 5 4 4 4 2 2 2 1 1 2 4 4 5 5 5 5 5 6 6 5 6 6 6 5 6 5 5 6 6 6 7 7 8 8 6
6 5 4 4 4 3 4 4 5 5 4 4 3 1 1 2 3 2 4 5 5 5 5 6 6 6 6 6 6 7 6 6 6 3 7 8 6 7 7 7 7 5
5 5 5 6 6 6 6 5 4 4 3 2 2 2 3 3 4 3 3 5 6 6 5 6 6 6 6 6 6 6 6 6 7 5 6 6 5 7 5 5 6 7
6 7 7 7 6 6 5 4 4 3 2 2 3 3 4 3 4 4 4 5 6 6 5 6 6 5 6 6 7 6 6 6 5 6 7 5 5 5 5 5 6 6
6 6 6 6 6 5 4 5 5 4 4 3 3 4 4 5 5 4 5 5 5 6 5 6 5 6 6 6 6 7 5 6 4 6 7 7 4 4 4 5 7 8
4 5 6 6 6 5 5 6 5 5 4 3 5 4 5 5 5 5 5 6 5 6 6 5 6 5 5 6 6 6 5 6 4 6 8 6 5 5 4 5 7 8
6 5 6 6 5 5 6 6 5 4 5 4 4 5 5 5 5 5 5 5 6 6 6 6 6 6 5 6 6 6 5 6 5 6 8 5 5 6 5 6 7 7
6 5 5 5 6 6 6 6 5 5 5 5 5 5 6 6 6 5 5 6 6 6 6 6 6 6 5 5 7 7 6 4 5 7 7 6 6 7 5 5 6 8
6 6 5 6 6 6 6 6 6 5 5 6 6 6 5 6 6 6 6 6 6 6 6 6 6 6 5 6 6 7 7 5 5 6 7 7 7 6 5 5 7 7
6 6 6 6 7 7 7 6 6 6 6 6 6 6 6 5 6 7 7 7 7 6 6 6 6 6 6 5 6 7 7 7 6 6 6 6 7 6 6 6 7 7
7 6 7 7 7 6 7 6 6 6 6 7 6 6 6 7 6 6 7 7 7 8 8 7 7 7 7 6 5 5 7 7 7 7 7 6 6 5 5 6 6 7
7 7 7 8 7 6 7 6 6 6 7 6 7 7 7 7 8 7 8 8 7 8 8 7 7 7 7 8 7 6 6 6 7 7 7 6 6 6 6 6 7 6
8 8 8 7 7 7 6 6 7 7 7 8 7 7 8 8 8 9 8 9 8 8 8 8 8 7 7 8 7 7 7 8 7 7 7 6 5 6 6 6 6 6
9 8 7 8 7 7 7 7 7 7 7 6 6 7 7 8 10 10 8 8 8 8 8 7 8 8 7 7 7 8 7 8 8 8 8 7 6 5 5 6 6 6
8 7 7 7 7 7 7 8 8 8 8 7 7 7 6 8 8 8 9 8 7 7 8 7 8 8 8 9 9 8 8 9 8 9 9 8 7 6 5 6 5 5
9 8 8 8 8 9 9 9 8 8 8 8 8 8 8 7 7 7 9 10 10 8 8 7 7 6 8 13 11 9 9 8 7 8 9 9 8 7 5 5 5 5
9 9 9 9 10 9 8 9 10 9 8 8 8 8 9 8 8 9 9 9 10 10 10 8 7 7 13 14 15 15 11 10 9 8 8 8 8 9 8 6 4 4
10 10 10 11 9 10 10 10 9 9 9 9 9 9 9 8 9 10 10 10 9 9 10 10 9 10 16 16 16 16 14 10 10 9 7 8 8 8 7 6 6 6
11 11 11 11 11 11 10 9 10 10 11 10 11 10 8 9 10 10 10 10 10 11 11 9 8 12 16 17 17 17 17 14 9 10 9 9 8 8 8 7 6 7
11 11 11 12 11 10 10 11 11 13 12 11 10 9 9 10 9 10 10 10 11 11 11 10 10 13 18 18 18 18 18 14 10 10 10 10 9 9 8 8 8 7
11 11 12 12 12 11 11 12 13 12 12 11 10 10 11 11 11 11 10 11 11 11 10 10 9 15 19 19 19 19 18 13 10 9 9 8 8 9 9 9 9 8
11 12 12 12 11 11 12 13 13 13 13 10 10 9 9 9 10 11 12 13 12 11 11 11 9 16 19 20 20 19 19 11 10 10 9 9 8 8 8 8 8 8
12 12 13 13 12 12 12 13 13 13 11 9 10 10 11 11 12 13 12 12 13 12 13 12 10 15 20 21 21 21 15 9 10 9 9 9 9 9 8 8 7 8
11 12 13 13 12 13 14 14 12 9 9 8 10 10 10 12 12 12 11 12 13 14 15 14 13 15 21 21 21 21 18 13 11 10 9 8 7 7 6 7 8 13
10 11 12 13 13 13 13 12 9 7 4 2 6 8 10 10 10 10 9 8 10 13 16 17 14 14 21 22 22 22 18 12 11 10 11 8 8 7 5 5 7 10
8 10 11 11 12 12 8 3 2 3 6 6 4 5 8 8 9 8 8 9 9 11 11 13 13 11 16 21 21 22 21 14 11 12 13 12 11 9 7 6 6 7
Wind_Direction
177 171 166 179 192 197 183 187 202 201 221 199 205 262 227 317 45 78 93 82 76 75 73 72 74 78 73 74 80 82 75 74 65 61 68 70 61 69 66 63 60 63
190 180 175 177 195 201 196 192 190 191 212 207 211 205 230 102 68 91 103 94 78 78 80 80 73 82 83 81 84 91 82 81 76 56 78 69 67 70 68 67 72 67
183 178 181 182 199 206 201 198 191 201 203 208 156 167 132 120 112 93 100 101 90 83 79 82 82 77 87 87 85 88 92 91 85 70 74 65 60 76 66 74 71 60
189 186 188 198 199 204 192 183 204 201 173 202 198 168 140 129 123 128 105 89 96 88 86 81 88 86 88 93 92 81 82 76 75 86 82 63 54 71 68 78 78 66
188 188 194 200 205 200 176 188 205 196 199 191 139 156 138 139 139 130 105 95 101 101 92 91 86 90 90 89 94 96 84 83 60 77 83 71 39 62 55 77 79 75
198 191 191 196 201 188 188 201 206 193 191 160 185 168 150 148 151 140 128 118 113 113 107 103 102 93 95 97 92 94 100 93 79 85 79 75 64 42 53 65 77 70
198 189 200 203 200 193 193 205 207 195 190 182 142 178 153 156 160 148 139 133 129 127 129 130 123 115 107 109 104 101 88 97 97 91 92 81 85 63 48 68 76 77
200 194 193 194 202 200 199 203 203 199 186 145 180 180 165 166 158 152 139 141 135 133 133 130 125 124 128 127 120 114 102 88 102 101 97 91 83 80 64 73 85 85
190 197 187 189 198 203 203 199 202 201 175 177 182 178 174 168 162 160 153 146 137 140 141 140 142 137 141 134 128 125 119 107 101 109 112 113 98 98 98 100 86 80
195 198 192 191 197 203 200 198 196 197 188 189 183 170 172 171 162 160 156 156 149 149 155 151 150 149 140 140 138 135 127 122 116 109 108 110 113 115 110 95 98 90
200 195 199 201 203 198 201 193 196 197 194 193 174 177 177 164 160 162 164 165 167 167 164 167 165 155 145 138 131 133 131 127 124 116 111 109 111 112 108 102 91 93
205 199 202 205 204 201 199 194 196 202 201 201 184 182 176 177 170 174 180 182 179 174 171 167 163 160 154 149 143 136 124 117 116 112 106 104 103 97 100 101 106 106
208 207 203 203 203 202 196 194 200 206 204 206 195 187 180 180 185 182 188 183 183 175 172 169 165 160 153 149 145 139 131 124 115 109 105 105 102 106 105 105 109 115
212 208 205 204 200 199 198 201 204 207 209 207 189 191 193 191 187 190 188 184 182 181 176 168 164 158 155 151 146 142 135 127 129 125 121 112 109 108 112 113 120 123
211 209 204 202 199 198 201 205 208 210 209 202 195 201 200 200 196 186 177 183 183 181 174 171 172 172 168 161 151 147 142 141 140 136 132 128 118 117 119 124 125 130
211 210 207 200 199 202 205 203 207 210 208 203 201 201 200 191 188 188 186 184 181 184 180 180 184 180 176 169 160 152 152 144 140 141 141 138 136 131 133 139 143 148
212 214 210 208 207 206 204 203 207 208 209 207 204 200 196 192 183 185 192 192 189 183 185 189 188 186 174 168 164 155 148 150 149 152 149 147 150 149 151 151 144 153
214 214 214 216 210 210 207 207 206 207 211 210 204 202 202 188 188 194 194 191 192 191 191 191 191 184 169 172 167 161 157 154 155 154 157 159 158 155 148 140 139 130
214 214 216 217 215 212 209 204 205 208 212 210 210 206 193 191 198 194 198 195 192 192 197 197 195 178 172 173 170 166 161 156 161 159 157 164 162 154 147 143 145 141
215 216 219 220 217 213 208 208 206 212 212 210 207 197 195 199 197 199 198 194 196 197 199 197 193 176 175 175 172 170 166 161 160 163 164 161 160 155 152 156 156 151
215 217 222 222 219 214 212 213 212 215 213 209 203 198 195 196 196 200 202 199 199 198 198 198 200 175 177 176 175 172 170 163 159 161 160 159 161 159 162 161 162 160
215 219 223 224 220 217 217 219 218 215 213 206 201 203 201 196 202 201 200 198 196 192 195 202 198 176 178 178 177 175 168 166 162 160 158 160 160 163 162 165 165 161
214 219 224 225 221 218 221 224 222 220 217 202 203 203 197 198 203 203 203 196 191 190 193 199 196 183 181 180 181 173 164 157 162 158 160 161 168 166 162 163 166 167
221 221 226 226 224 222 222 224 224 225 221 201 206 202 205 210 209 211 207 197 189 191 193 193 199 186 182 182 179 172 169 165 163 160 158 164 159 160 157 163 175 175
229 226 227 228 228 230 227 230 231 233 252 212 218 211 215 217 217 216 214 203 201 199 194 194 198 187 181 185 177 175 172 163 161 154 155 166 159 157 158 154 175 178
239 235 235 236 237 239 236 209 110 153 189 170 210 233 236 228 220 217 209 205 204 204 203 202 196 189 183 183 179 179 174 161 155 157 168 167 168 163 159 172 180 175